Dewpoint
68 71 72 72 73 73 72 73 71 70 68 69 69 69 69 70 67 66 70 69 69 69 71 72 73 73 71 73 70 73 75 74 74 77 78 78 78 78 77 77 77 76 77 76 71 73 75 74 75 77 77 75 75 72 72 73 75 75 75 77 74 76 75 75 73 72 74 77 75 70 70 73 72 75 74 73 78 76 75 78 78 77 75 76 74
68 70 71 71 70 70 71 71 72 70 67 67 68 68 68 69 70 69 67 69 69 67 71 69 71 72 71 72 72 72 75 76 72 74 76 77 76 72 74 78 77 76 76 76 76 74 77 76 75 74 75 73 73 69 68 67 70 69 71 70 74 73 75 74 74 73 73 76 75 77 74 74 71 78 77 76 73 76 75 76 73 71 75 76 77
73 72 71 71 72 69 71 72 72 70 67 65 64 64 65 67 68 69 65 64 68 68 69 69 73 73 72 73 74 74 76 73 73 73 74 76 75 73 71 75 76 75 75 76 75 76 75 76 73 73 70 71 72 70 69 70 69 69 68 69 70 69 74 74 73 73 72 73 76 72 74 79 76 77 78 74 76 76 76 74 72 67 71 74 77
74 72 73 72 69 69 72 72 70 69 67 65 64 63 63 65 67 67 65 63 65 68 70 69 72 74 73 74 75 73 76 73 72 73 75 75 75 75 76 75 74 75 75 74 73 74 74 75 72 72 72 73 73 72 71 70 71 72 76 73 70 69 74 74 75 75 74 73 76 75 75 74 76 77 75 74 74 75 74 75 76 71 74 70 72
71 73 73 72 74 75 70 68 67 69 67 64 63 62 62 61 65 65 64 63 63 66 69 71 72 73 69 72 73 73 73 73 74 71 72 73 74 73 74 76 76 75 74 75 74 75 74 73 73 73 74 72 74 72 72 72 72 71 71 73 78 77 74 77 77 76 76 75 75 76 77 76 77 76 76 74 75 77 78 77 75 75 77 75 70
70 71 71 72 72 74 74 72 67 65 67 65 63 62 61 60 61 64 64 64 64 63 67 67 69 72 71 71 72 73 74 73 75 74 71 71 73 72 74 75 73 74 74 73 73 73 72 73 73 73 72 72 72 72 73 73 73 71 71 73 74 75 76 76 76 76 76 75 75 75 77 76 75 76 77 77 76 74 76 77 75 75 79 78 74
73 73 72 71 73 74 74 73 72 66 65 66 64 62 61 59 59 62 64 64 62 59 62 67 68 70 71 70 70 72 73 72 75 75 74 73 73 73 70 72 73 73 73 72 71 71 71 71 73 73 73 73 72 72 75 75 73 73 74 75 75 75 74 73 75 75 74 74 75 75 75 75 75 75 77 76 76 75 75 76 76 77 77 76 77
72 72 73 73 73 73 74 74 74 72 70 68 68 63 61 61 62 63 65 64 62 59 57 62 66 66 69 69 71 71 74 73 75 76 75 73 72 72 72 71 70 70 70 71 70 69 70 70 68 70 71 73 73 73 73 75 75 73 75 74 74 75 74 73 74 74 74 73 74 74 75 75 76 74 79 79 75 75 75 73 73 75 76 80 76
73 72 73 73 73 73 74 75 75 73 73 73 71 68 65 64 65 64 67 64 61 61 59 56 64 65 66 70 70 70 70 72 72 74 75 74 73 71 71 71 70 70 69 67 67 68 67 66 67 67 72 76 75 74 74 74 73 74 75 76 76 75 74 74 75 76 75 74 74 74 74 75 75 74 73 72 71 72 76 74 74 76 77 75 75
73 73 72 73 73 74 74 74 73 74 74 74 73 72 70 67 60 62 63 63 66 67 65 63 60 64 66 68 69 68 68 68 72 69 71 74 74 70 70 71 70 69 71 70 67 66 64 64 64 74 73 75 74 73 71 73 74 75 78 76 76 76 76 75 75 74 75 75 73 74 73 72 71 72 72 72 74 75 74 75 73 74 74 73 76
72 71 73 73 74 75 75 74 73 73 73 74 74 73 72 71 67 69 68 66 68 73 67 65 61 60 64 65 67 66 67 65 68 64 65 68 72 73 72 73 72 71 70 72 71 67 64 65 64 69 75 74 73 71 70 69 71 72 72 73 76 79 75 75 74 75 75 74 74 74 72 71 71 70 71 70 70 71 72 78 75 75 74 72 70
71 72 72 73 73 73 74 74 74 74 73 73 73 74 74 72 72 70 71 69 73 69 67 67 68 63 59 62 64 65 66 67 62 63 64 64 69 73 72 70 68 70 68 67 68 67 66 64 62 60 63 69 72 73 71 70 68 69 70 71 71 72 73 76 77 75 75 74 74 72 71 71 72 73 71 68 73 74 80 75 77 75 73 73 73
67 68 70 71 72 73 73 73 73 73 72 73 74 74 74 73 73 73 72 71 72 71 72 72 70 68 66 69 64 65 66 64 60 61 62 63 63 70 70 71 68 65 66 68 68 70 70 68 65 63 58 72 73 72 74 72 69 67 68 69 70 70 67 66 69 75 76 79 77 74 72 72 72 72 72 73 78 74 75 75 74 74 73 72 73
65 65 67 68 69 69 69 70 72 73 74 74 74 74 74 74 74 74 74 73 72 71 71 71 71 74 71 70 72 69 71 67 59 59 60 61 62 65 71 69 68 67 67 66 64 67 68 68 69 67 65 64 71 75 75 74 73 72 72 72 73 73 70 67 66 66 70 71 74 75 76 77 75 77 78 79 76 74 75 74 75 75 74 73 75
64 64 67 69 69 69 68 70 71 72 73 73 74 74 73 73 73 74 74 74 71 72 73 73 72 72 72 70 70 67 65 64 58 57 58 59 60 63 71 67 65 65 65 65 69 67 71 68 67 67 69 70 67 69 75 77 77 76 75 73 73 73 73 72 71 70 69 68 69 71 74 76 76 76 77 78 77 78 77 76 76 75 76 77 76
62 63 63 64 66 68 69 69 70 71 71 72 72 73 73 73 73 74 74 75 73 74 75 73 73 73 74 73 73 71 70 65 61 57 56 57 60 69 71 70 68 66 65 67 68 71 70 69 70 70 70 71 72 68 71 76 77 77 77 76 75 74 73 73 69 68 70 68 68 68 70 72 69 72 72 72 76 78 78 77 77 77 75 75 74
61 63 62 61 62 64 66 68 68 68 70 71 72 72 72 72 74 74 73 74 73 73 73 73 75 73 73 73 72 75 73 70 64 59 55 55 59 69 71 72 71 70 68 68 68 68 67 69 72 69 69 72 71 64 63 69 73 75 76 77 77 76 75 74 68 65 64 63 62 62 63 63 63 62 62 64 71 73 76 77 76 75 75 74 74
60 62 60 60 61 63 66 66 67 66 69 70 71 73 73 73 73 74 73 73 74 73 73 73 74 74 72 72 72 73 72 71 63 58 54 55 61 70 71 72 72 72 71 70 69 68 68 71 72 70 69 69 65 63 62 66 70 71 72 72 73 74 75 75 73 70 63 62 62 62 62 62 63 62 63 63 63 68 72 71 71 71 70 70 69
59 59 59 59 60 62 64 67 66 65 68 70 71 71 73 73 74 75 74 73 73 74 74 73 73 74 73 72 73 73 72 70 61 57 54 53 59 68 72 72 72 72 72 72 72 71 72 72 73 72 71 69 63 61 61 66 71 71 71 70 70 70 70 72 73 72 72 71 70 70 69 67 68 69 69 66 65 70 72 71 70 70 69 68 67
60 61 60 60 61 63 63 66 66 66 68 68 70 71 71 70 69 71 72 71 72 73 74 73 73 73 72 73 72 71 71 71 70 56 54 53 54 69 72 72 72 72 72 73 72 73 72 72 72 65 62 61 60 59 59 59 69 71 71 70 69 69 69 69 71 70 72 74 74 72 72 72 71 71 71 71 72 72 70 71 71 71 70 69 69
63 63 62 59 58 58 59 61 61 62 67 69 70 71 70 70 70 68 67 70 71 72 71 72 73 72 73 73 73 74 72 73 75 57 54 53 53 58 70 73 73 72 73 73 72 72 73 73 72 67 61 58 57 57 57 56 61 70 72 71 70 70 70 70 70 73 72 72 72 75 75 74 74 73 72 72 72 72 72 71 71 71 70 68 67
63 62 62 60 59 58 58 61 61 59 65 69 71 71 72 72 71 68 69 68 69 69 70 71 70 71 72 72 74 75 75 75 74 62 56 54 52 52 66 71 73 73 73 73 73 72 72 72 73 69 62 58 57 55 55 57 57 69 71 64 64 64 71 73 72 72 71 71 71 70 70 73 74 74 73 72 72 72 72 73 72 71 70 69 68
62 61 61 60 60 59 60 58 58 57 61 66 69 69 71 71 71 72 71 71 71 71 70 70 71 71 72 74 74 74 76 77 69 73 58 53 52 51 54 62 64 74 73 72 72 72 73 74 74 64 59 57 55 54 53 54 57 63 61 61 61 62 69 73 73 73 72 71 71 70 70 69 68 68 71 73 73 74 73 73 73 73 72 71 70
61 60 61 61 59 58 56 57 58 61 63 67 66 67 68 70 71 72 71 71 70 69 70 70 71 71 71 72 73 74 76 77 72 68 69 55 52 51 51 52 54 64 70 72 72 72 73 74 71 57 58 57 57 56 54 54 61 58 57 58 60 63 71 72 72 73 73 72 71 71 71 71 70 70 69 71 70 72 73 72 72 73 73 72 71
59 59 59 58 59 57 59 61 62 63 64 64 65 66 68 69 70 71 72 71 70 70 71 71 71 71 71 72 73 74 75 77 76 72 65 61 54 52 51 51 52 52 59 63 69 72 70 58 57 57 59 56 57 57 55 54 53 55 57 58 62 68 70 71 72 72 72 72 71 71 71 71 71 71 73 74 74 73 72 72 71 73 75 74 74
59 58 57 58 57 56 56 55 55 60 60 63 65 68 66 65 67 70 71 71 71 70 69 68 68 69 71 71 72 73 74 74 76 76 72 69 62 54 53 53 54 54 56 61 61 60 58 56 57 58 59 61 68 70 70 69 58 55 57 60 66 69 70 72 72 72 71 71 71 70 71 71 71 71 72 73 72 72 73 74 74 73 73 75 74
59 59 59 55 56 57 57 55 56 57 59 58 59 60 61 64 66 67 67 67 67 67 66 66 67 67 67 67 69 72 71 73 74 74 76 76 75 70 61 61 57 55 60 63 61 63 63 64 65 63 64 64 64 64 65 66 68 66 63 64 65 68 69 71 71 72 72 71 71 71 71 71 72 72 72 72 71 72 72 72 71 71 74 74 74
55 56 55 55 56 56 56 58 58 55 55 55 56 58 59 59 61 64 64 63 64 65 65 66 66 65 65 66 67 68 70 72 73 73 74 75 75 75 71 69 67 66 66 66 67 68 69 66 66 68 69 69 69 70 69 69 69 70 69 67 67 68 69 70 71 72 72 72 72 72 71 71 71 71 71 71 72 72 73 72 71 71 71 72 72
58 55 55 56 57 59 57 56 55 55 57 59 59 60 59 58 61 62 62 64 64 62 62 64 64 64 63 65 65 66 67 69 70 58 65 59 70 74 74 73 71 70 68 62 68 70 69 69 69 69 69 68 68 69 69 71 71 71 71 71 70 70 70 70 70 70 71 71 71 71 71 72 71 71 71 71 72 72 73 73 73 72 72 72 71
56 55 55 55 55 55 56 55 57 58 56 56 57 58 60 57 60 62 62 63 59 55 58 64 64 64 63 63 64 63 64 67 60 55 53 52 52 52 55 55 57 66 66 60 64 68 69 69 68 68 68 68 68 68 68 68 70 71 72 68 70 70 70 70 70 70 71 70 71 70 70 70 71 71 71 70 71 71 71 69 73 74 73 73 72
56 54 55 53 55 56 55 55 56 59 58 58 59 59 59 61 53 50 53 57 53 49 48 50 51 52 60 61 61 57 56 54 52 51 50 50 49 48 48 48 48 49 50 59 66 67 68 68 68 69 69 69 69 70 69 70 71 72 73 72 73 71 69 70 70 70 70 70 70 70 70 70 70 70 70 70 70 70 71 72 72 74 74 73 73
55 53 53 55 59 58 56 57 57 57 58 58 59 59 58 58 60 55 51 50 49 47 47 47 47 47 48 52 58 60 57 53 51 49 48 47 47 47 46 45 44 45 46 49 62 67 69 68 69 69 70 70 70 70 71 71 71 72 71 71 70 70 70 70 71 70 70 70 70 69 70 70 70 70 70 70 70 71 71 70 71 72 73 74 74
56 57 58 58 57 57 54 56 57 56 56 57 57 57 56 55 55 57 61 54 49 48 48 46 46 46 46 46 45 47 49 49 46 45 45 45 45 45 45 44 43 44 46 56 63 66 68 69 69 70 70 70 71 72 71 71 71 71 71 71 71 71 71 70 69 73 71 70 71 70 70 69 69 69 68 69 69 70 71 70 71 71 72 72 72
58 58 58 58 58 57 57 57 57 57 58 58 57 56 55 56 56 57 57 57 59 59 51 46 45 46 45 44 45 46 46 45 45 45 45 45 45 44 43 48 46 44 49 63 65 66 68 70 70 70 70 71 71 71 71 71 71 71 71 71 72 72 72 72 72 71 70 71 71 70 69 70 69 70 70 70 70 70 70 69 70 70 71 71 71
57 57 57 57 57 56 56 56 55 56 57 57 56 55 55 57 56 55 55 56 57 59 58 63 58 47 58 56 51 48 48 46 46 46 46 46 45 43 42 53 61 62 55 58 63 67 69 69 70 71 71 71 71 71 71 71 72 71 71 71 71 72 72 71 71 71 71 71 70 70 71 70 70 69 70 70 70 70 70 70 70 70 70 70 70
55 55 55 54 54 54 54 55 55 55 56 56 56 54 54 54 54 54 55 56 57 57 57 59 61 56 52 46 47 47 46 47 47 47 47 47 47 44 59 65 67 68 67 63 63 65 67 69 70 70 71 71 71 71 72 71 71 72 72 72 71 71 71 71 71 71 71 72 71 70 70 72 71 70 71 71 71 70 70 70 70 69 69 70 70
53 53 53 53 54 53 53 54 54 55 54 53 53 54 54 54 55 55 55 56 57 57 57 59 59 60 60 62 62 49 50 48 48 47 47 47 45 50 61 64 66 68 68 69 68 66 67 68 69 70 71 71 72 72 73 73 73 72 69 71 72 72 72 72 72 71 72 72 71 71 71 72 71 71 71 70 70 71 71 71 70 69 69 68 66
51 52 52 52 53 54 53 53 52 54 54 53 55 55 53 54 54 54 55 55 56 56 57 57 59 57 56 60 61 59 57 53 50 51 52 52 51 57 61 64 66 66 67 68 70 71 70 70 70 70 71 71 72 72 72 73 73 73 72 72 71 72 68 71 70 72 72 73 73 73 73 73 73 73 71 72 71 71 72 71 71 71 69 67 68
50 52 53 54 53 51 51 51 51 52 52 52 52 52 53 53 53 53 54 54 55 55 55 56 55 55 56 60 58 57 56 56 55 55 56 56 59 60 61 62 64 66 68 69 70 71 72 73 73 73 74 74 74 74 74 74 74 75 74 74 73 72 72 72 73 73 74 73 74 74 74 74 74 72 70 70 69 70 71 71 70 71 71 71 71
48 48 49 52 50 49 50 51 51 51 51 51 51 52 52 53 53 53 53 53 53 54 54 54 54 55 58 57 55 54 54 54 54 54 54 56 57 60 61 61 61 61 60 60 62 63 64 64 65 65 67 69 71 72 73 73 74 74 74 72 70 71 72 72 73 73 73 74 72 72 72 72 72 72 71 71 71 71 71 71 71 71 71 71 71
46 47 49 49 50 48 49 50 50 50 51 51 51 52 52 52 53 53 53 53 53 53 53 54 54 55 56 52 47 49 53 53 53 53 54 56 57 58 58 58 58 58 57 56 57 58 59 60 60 61 62 64 65 67 68 69 70 71 72 72 71 70 70 70 71 72 74 75 72 71 72 72 71 71 70 70 67 69 71 71 70 70 70 70 71
46 46 46 47 48 48 48 49 49 50 50 51 51 50 51 51 52 52 53 53 52 53 52 53 53 54 53 46 45 45 51 52 52 53 54 55 55 55 55 55 55 55 53 53 54 55 55 55 56 57 58 59 60 61 62 64 66 67 67 68 69 69 70 72 73 73 73 74 74 72 72 71 69 69 70 66 72 73 72 71 71 70 70 70 71
47 46 46 48 47 47 47 47 48 48 49 49 49 51 52 52 52 52 52 52 52 52 51 52 53 54 55 50 50 49 51 51 52 52 52 52 52 52 52 53 52 53 52 51 52 52 53 53 53 54 55 56 57 57 57 58 59 60 62 64 65 64 64 65 67 67 65 66 67 68 70 71 69 70 70 70 72 73 72 71 70 69 69 71 70
45 45 46 46 45 45 46 46 46 47 48 49 50 50 50 51 51 51 51 51 51 52 52 51 51 52 52 51 52 52 50 50 49 49 50 50 50 50 50 50 50 50 50 49 49 50 51 51 51 52 53 53 54 55 55 55 56 57 57 58 59 60 61 62 62 60 59 59 61 64 66 68 68 70 71 71 73 73 72 71 71 71 72 72 71
44 43 44 43 44 44 44 46 46 46 48 48 47 48 49 49 50 50 50 51 51 51 51 51 51 51 50 50 50 50 49 48 48 48 48 48 48 48 48 48 48 48 48 48 48 49 49 49 49 50 50 51 52 52 53 53 54 54 54 54 55 55 55 56 55 53 53 55 59 60 63 65 66 67 68 69 69 71 72 72 71 68 70 70 70
42 42 43 42 43 44 44 44 46 46 46 46 46 47 48 49 49 50 50 50 50 50 50 50 50 50 49 49 49 48 48 47 47 47 47 47 46 46 47 46 47 46 46 46 47 47 47 47 47 48 48 49 49 50 51 51 52 52 52 52 52 52 53 51 49 48 50 53 55 57 59 60 62 64 65 66 67 68 70 71 71 72 72 71 71
41 41 41 42 42 43 44 45 44 44 45 46 46 47 47 48 48 49 49 49 49 50 50 49 49 48 48 48 47 47 46 46 46 46 46 46 46 45 45 45 45 45 45 45 46 46 46 46 46 46 47 47 48 48 49 49 50 50 50 49 49 48 45 44 43 45 47 50 53 55 56 57 58 59 60 62 64 66 67 68 68 69 70 71 71
39 40 41 43 43 43 44 43 43 46 45 46 46 47 48 48 47 47 47 47 48 48 48 48 48 47 48 46 46 45 45 45 45 45 45 45 44 44 44 44 44 44 45 45 45 45 45 45 45 45 46 46 46 47 47 48 48 48 47 47 46 44 43 41 42 43 45 47 50 52 54 55 56 58 60 61 63 64 65 66 66 68 68 69 68
40 41 41 42 43 43 43 43 44 43 44 45 45 45 45 45 46 46 46 46 46 46 46 46 46 46 45 45 45 45 45 45 44 44 44 43 43 43 43 43 44 44 44 44 44 44 44 44 44 44 44 44 44 43 44 44 44 44 44 43 43 41 38 39 40 43 43 44 45 49 53 55 57 58 60 62 63 64 65 66 66 66 67 67 67
41 41 41 41 42 43 44 44 43 43 43 43 43 44 44 45 44 45 44 45 45 45 45 45 45 44 44 44 44 43 44 43 43 43 43 42 42 42 42 43 43 43 43 43 43 43 43 43 43 43 43 42 42 42 42 42 42 42 42 41 39 37 37 38 39 41 43 46 48 51 53 55 56 57 59 60 62 62 63 64 65 65 65 66 66
40 40 40 40 40 41 41 41 41 42 42 42 43 43 44 44 43 43 43 44 44 44 44 44 44 43 43 43 43 43 43 43 43 42 42 41 41 41 41 42 42 41 41 41 41 41 42 42 42 42 41 40 38 38 39 40 41 41 41 39 36 35 36 37 41 39 40 41 46 49 53 56 57 59 60 61 61 62 61 62 63 63 64 64 64